Weather History for 83755 - April, 2014

Change the Weather History Date:

Saturday, April 5, 2014

  Actual Average Record
Temperature  
Mean Temperature 78 °F -  
Max Temperature 82 °F 81 °F - ()
Min Temperature 73 °F 71 °F - ()
Cooling Degree Days 12    
Growing Degree Days 28 (Base 50)    
Moisture  
Dew Point 70 °F    
Average Humidity 77    
Maximum Humidity 94    
Minimum Humidity 65    
Precipitation  
Precipitation 0.00 in - - ()
Sea Level Pressure  
Sea Level Pressure 30.09 in    
Wind  
Wind Speed 6 mph ()    
Max Wind Speed 16 mph    
Max Gust Speed -    
Visibility 6.2 miles    
Events      
T = Trace of Precipitation, MM = Missing Value Source: Averaged Metar Reports

Daily Weather History Graph

Daily Weather History Graph

Search for Another Location

Airport or City:

Trip Planner

Search our weather history database for the weather conditions in past years. The results will help you decide how hot, cold, wet, or windy it might be!

Date:

Astronomy

Apr. 05, 2014 Rise Set
Actual Time 6:02 AM BRT 5:48 PM BRT
Civil Twilight 5:39 AM BRT 6:10 PM BRT
Nautical Twilight 5:13 AM BRT 6:36 PM BRT
Astronomical Twilight 4:47 AM BRT 7:02 PM BRT
Moon 11:15 AM BRT (4/5) 10:30 PM BRT (4/5)
Length of Visible Light 12h 31m
Length of Day
11h 46m
Waxing Crescent, 34% of the Moon is Illuminated
Apr 5
Waxing Crescent
Apr 7
First Quarter
Apr 15
Full
Apr 22
Last Quarter
Apr 29
New

Hourly Weather History & Observations

Time (BRT) Temp. Heat Index Dew Point Humidity Pressure Visibility Wind Dir Wind Speed Gust Speed Precip Events Conditions
5:30 AM 73.4 °F - 71.6 °F 94% 30.09 in - North 3.5 mph - N/A   Clear
6:00 AM 73.4 °F - 71.6 °F 94% 30.09 in 6.2 mi North 3.5 mph - N/A   Partly Cloudy
7:00 AM 75.2 °F - 73.4 °F 94% 30.12 in 6.2 mi NNE 3.5 mph - N/A   Scattered Clouds
8:00 AM 77.0 °F - 73.4 °F 89% 30.12 in 6.2 mi NE 2.3 mph - N/A   Partly Cloudy
9:00 AM 80.6 °F 83.9 °F 69.8 °F 70% 30.15 in 6.2 mi SSE 3.5 mph - N/A   Scattered Clouds
10:00 AM 78.8 °F - 71.6 °F 78% 30.15 in 6.2 mi SSE 4.6 mph - N/A   Scattered Clouds
11:00 AM 78.8 °F - 71.6 °F 78% 30.12 in 6.2 mi SSE 11.5 mph - N/A   Mostly Cloudy
12:00 PM 80.6 °F 84.6 °F 71.6 °F 74% 30.09 in 6.2 mi South 11.5 mph - N/A   Mostly Cloudy
1:00 PM 80.6 °F 84.6 °F 71.6 °F 74% 30.06 in 6.2 mi South 16.1 mph - N/A   Scattered Clouds
2:00 PM 82.4 °F 86.3 °F 69.8 °F 66% 30.06 in 6.2 mi South 16.1 mph - N/A   Scattered Clouds
3:00 PM 80.6 °F 83.9 °F 69.8 °F 70% 30.04 in 6.2 mi SSE 13.8 mph - N/A   Partly Cloudy
4:00 PM 80.6 °F 83.2 °F 68.0 °F 65% 30.04 in 6.2 mi SSE 13.8 mph - N/A   Partly Cloudy
5:00 PM 78.8 °F - 68.0 °F 69% 30.06 in 6.2 mi SSE 10.4 mph - N/A   Partly Cloudy
6:00 PM 77.0 °F - 68.0 °F 74% 30.06 in 6.2 mi SE 9.2 mph - N/A   Partly Cloudy
7:00 PM 77.0 °F - 68.0 °F 74% 30.09 in 6.2 mi SSE 9.2 mph - N/A   Partly Cloudy
8:00 PM 75.2 °F - 68.0 °F 78% 30.09 in 6.2 mi SE 9.2 mph - N/A   Partly Cloudy
9:00 PM 75.2 °F - 69.8 °F 83% 30.12 in 6.2 mi SE 3.5 mph - N/A   Partly Cloudy
10:00 PM 77.0 °F - 68.0 °F 74% 30.12 in 6.2 mi East 4.6 mph - N/A   Scattered Clouds
11:00 PM 75.2 °F - 66.2 °F 73% 30.12 in 6.2 mi ENE 4.6 mph - N/A   Scattered Clouds